Location: Unspecified
(0.0000°N, 0.0000°E)
Time: 23:03:20
(UTC+01:00)

Sapphire - Visible Passes

Search period start: 23 March 2017 00:00
Search period end: 02 April 2017 01:00
Orbit: 785 x 796 km, 67.1° (Epoch: 22 March)

Date Brightness Start Highest point End Pass type
(mag) Time Alt. Az. Time Alt. Az. Time Alt. Az.
24 Mar ? 21:14:56 10° N 21:15:14 12° N 21:15:14 12° N visible
25 Mar ? 20:44:37 10° N 20:46:42 22° NNE 20:46:42 22° NNE visible
26 Mar ? 21:14:34 10° NNE 21:18:22 26° ENE 21:18:22 26° ENE visible
26 Mar ? 22:58:14 10° WNW 22:59:12 14° WNW 22:59:12 14° WNW visible
27 Mar ? 20:44:57 10° NNE 20:48:24 17° ENE 20:50:14 15° E visible
27 Mar ? 22:26:48 10° NW 22:31:05 31° W 22:31:05 31° W visible
28 Mar ? 21:55:43 10° NW 22:00:55 48° WSW 22:03:11 30° SSW visible
29 Mar ? 21:24:54 10° NNW 21:30:18 76° WSW 21:35:31 11° SSE visible
30 Mar ? 20:54:19 10° NNW 20:59:41 70° ENE 21:05:04 10° SSE visible
31 Mar ? 20:23:56 10° N 20:29:04 45° ENE 20:34:12 10° SE visible
31 Mar ? 22:10:29 10° W 22:12:13 11° WSW 22:13:58 10° SW visible
01 Apr ? 21:37:56 10° WNW 21:41:35 18° WSW 21:45:14 10° SSW visible
